Wind_Speed
49 51 51 47 45 47 50 51 51 52 52 52 52 52 52 52 51 47 46 47 46 49 47 42 44 46 47 45 41 38 36 34 33 34 35 35 34 34 34 34 32 30 28 27 27 27 28 28 27 28 30 32 33 34 34 34 32 31 30 29 28 29 30 31 32 34 36 38 40 41 41 41 42 42 41 39 38 37 38 39 39 39 38 39 39 40
50 53 51 46 46 49 50 50 50 51 51 52 53 53 53 53 52 50 49 49 49 51 51 48 46 46 44 44 44 41 37 34 32 33 36 37 37 36 34 34 32 31 30 28 28 28 29 28 27 27 29 31 33 34 35 36 36 35 34 32 30 30 30 31 32 34 35 37 39 41 41 42 42 42 43 42 41 40 41 42 42 40 40 40 41 42
52 53 48 46 48 49 49 49 50 50 51 52 53 54 55 53 53 53 50 49 50 51 52 52 51 50 46 44 45 42 39 36 33 34 35 37 39 39 36 35 33 32 32 31 29 29 30 30 30 29 29 29 30 32 34 35 36 36 35 34 32 31 30 31 32 33 34 36 38 39 41 41 42 43 44 44 44 43 44 44 44 43 43 43 44 45
53 51 46 47 48 48 48 49 49 50 51 51 53 54 54 52 53 54 51 49 49 50 52 53 52 53 50 48 48 44 40 39 37 36 36 36 38 39 38 37 35 35 35 34 34 32 31 32 32 32 32 31 31 32 33 34 36 36 36 35 34 33 32 32 32 33 34 35 37 38 39 41 42 43 44 45 45 45 45 45 45 46 46 47 47 48
51 49 47 47 47 48 48 48 48 49 49 50 51 52 52 51 51 52 51 50 48 47 49 51 53 54 52 51 51 48 45 44 43 42 40 39 39 39 39 40 38 38 37 36 37 37 35 35 35 35 35 35 36 37 37 37 38 38 39 38 37 36 35 35 35 35 35 36 37 38 39 40 41 43 44 45 45 45 46 46 47 47 48 49 50 50
49 48 48 47 46 46 46 46 45 46 47 47 47 47 48 48 48 48 49 49 49 48 47 49 52 54 54 53 52 50 50 48 48 48 47 44 44 42 40 41 41 41 41 40 40 40 40 40 40 40 39 40 41 43 43 42 41 40 41 41 41 40 38 38 37 37 37 37 38 39 39 40 41 43 44 45 45 46 47 47 48 48 49 50 50 50
46 45 44 45 44 44 43 42 40 41 44 43 41 42 43 44 45 46 46 47 49 51 50 49 50 53 54 55 54 52 52 52 49 49 50 49 47 46 44 42 44 44 44 44 44 44 44 44 44 44 44 44 45 47 47 48 47 44 42 43 44 43 43 42 41 40 40 40 40 40 40 41 42 43 44 45 46 46 47 48 48 48 49 50 50 51
42 40 40 41 41 41 40 37 38 41 43 42 41 42 43 44 45 45 46 48 49 51 52 51 50 51 54 56 56 55 54 56 53 47 50 53 51 50 50 47 46 47 47 48 48 49 49 48 48 48 49 49 49 50 51 51 52 51 48 45 44 45 45 45 45 45 45 44 44 43 42 42 42 43 44 45 46 47 48 49 49 49 50 50 50 51
39 39 39 40 41 41 39 39 41 43 44 44 45 46 46 46 47 48 49 51 52 52 54 54 51 50 53 55 57 58 56 57 57 51 49 54 55 56 56 54 53 52 51 50 50 51 52 53 53 53 53 53 53 53 54 54 55 56 56 52 49 47 47 47 47 48 48 49 48 48 47 46 45 45 46 46 47 48 49 50 50 50 50 51 51 51
41 42 43 43 43 42 42 43 45 45 47 47 47 48 48 49 50 52 53 55 55 55 55 55 53 52 54 56 57 60 59 56 55 55 54 54 58 61 62 61 61 59 57 56 55 55 55 56 57 58 57 57 56 56 56 57 57 58 59 59 56 54 51 50 50 50 50 50 49 49 49 48 48 48 48 48 49 50 51 51 52 52 52 52 52 52
43 45 46 46 45 44 45 46 46 47 48 48 49 50 51 53 54 56 58 59 59 60 59 57 55 53 55 58 60 60 61 60 57 57 60 59 60 63 65 65 65 63 62 61 61 61 61 61 60 60 59 59 59 59 60 61 61 61 62 61 60 58 57 56 54 53 53 52 51 49 48 48 48 48 49 50 51 52 52 53 54 54 54 54 54 54
47 48 49 49 48 48 48 48 48 49 49 50 51 53 55 58 60 61 62 61 61 62 61 59 57 57 57 59 63 61 60 62 61 60 63 65 64 64 66 67 66 66 66 66 66 66 65 64 62 60 58 58 58 59 61 62 62 63 63 63 62 60 59 57 55 53 53 55 56 55 52 50 49 49 51 52 53 54 54 55 56 56 56 56 56 56
52 52 52 53 52 50 49 50 50 50 51 52 54 55 57 60 62 63 64 62 61 62 62 61 61 63 63 62 63 63 61 63 64 64 66 67 66 67 67 68 68 68 69 69 70 69 68 66 63 61 60 60 59 59 59 61 62 63 63 63 62 61 59 56 54 52 52 54 56 59 59 56 53 52 52 53 55 56 57 57 58 59 59 59 59 59
58 57 56 55 54 52 51 51 51 52 53 54 56 56 57 58 60 62 63 62 64 65 65 65 67 69 70 68 67 66 64 66 68 69 71 70 70 70 70 71 71 72 72 72 72 71 70 68 66 64 63 63 62 60 58 56 55 56 56 56 56 56 54 52 51 51 51 51 53 56 58 57 56 56 55 55 56 57 59 60 60 61 61 62 62 62
61 61 61 58 56 55 54 53 53 54 56 57 57 56 57 58 57 58 61 63 66 67 67 68 70 72 71 70 70 68 66 68 70 72 73 73 72 72 72 72 71 71 71 71 71 69 69 69 68 67 66 64 62 60 58 56 55 53 52 51 50 50 49 49 49 50 51 52 52 55 56 57 58 59 58 57 57 58 59 61 61 62 62 63 64 64
62 63 63 62 60 59 58 56 56 56 57 58 58 58 59 57 55 57 61 62 63 64 67 69 71 73 72 69 69 68 67 67 69 71 70 71 72 73 73 72 69 67 65 65 67 67 68 69 69 68 67 66 64 62 61 61 61 60 58 56 54 51 49 49 50 50 52 53 54 56 57 58 59 60 61 59 58 59 60 61 62 62 62 62 63 65
61 63 62 62 63 62 60 59 59 58 59 60 60 59 58 55 55 58 60 60 60 62 67 69 71 73 72 70 69 68 67 66 68 69 69 70 71 71 70 69 67 65 64 64 66 67 68 68 68 68 67 68 67 66 65 64 63 63 63 62 61 59 56 54 53 53 54 55 57 59 61 60 58 59 61 61 60 60 60 62 64 64 64 62 62 63
61 62 60 60 62 61 60 59 58 58 58 58 58 56 55 55 56 57 59 60 60 63 67 67 68 68 67 69 71 70 67 68 70 70 69 69 68 68 67 67 67 67 67 68 68 69 69 69 68 69 69 69 70 69 69 68 66 65 64 64 65 64 63 60 58 58 58 59 60 61 64 63 59 58 60 61 61 62 62 63 64 65 66 65 64 63
56 57 57 57 58 58 57 57 58 59 58 56 55 53 52 54 56 55 58 60 60 62 64 62 61 63 65 68 70 68 67 69 70 70 69 68 68 68 68 69 69 69 69 70 69 69 70 70 70 71 71 72 71 70 69 67 67 66 66 66 66 67 67 66 65 66 66 65 64 65 65 65 62 60 61 62 62 63 65 66 66 65 66 66 67 66
51 53 56 56 57 59 60 60 59 58 57 56 55 55 54 55 57 58 59 60 60 62 62 61 62 65 67 66 66 67 68 69 69 68 66 65 65 66 68 70 71 71 71 70 70 69 70 70 70 70 71 71 70 69 67 66 66 66 67 67 67 68 69 69 69 70 70 69 68 67 66 66 64 63 63 64 64 65 66 68 68 67 66 66 66 67
54 57 61 61 60 62 63 61 59 56 56 57 58 59 59 59 59 58 60 59 61 64 66 66 68 68 67 65 65 67 68 66 65 64 62 61 62 63 65 66 67 67 68 69 69 69 69 69 68 69 69 69 68 67 65 65 66 67 68 68 68 69 69 70 71 71 71 70 68 67 67 67 66 65 64 65 67 67 68 69 70 69 67 66 65 66
57 59 63 62 61 62 61 58 57 58 59 60 62 61 61 61 59 59 62 62 63 66 68 69 72 71 67 65 64 64 63 61 59 59 60 61 62 62 62 62 63 64 66 68 69 68 68 68 68 68 68 68 69 68 66 66 66 67 68 69 69 70 71 72 73 73 72 70 67 66 67 68 68 67 67 67 69 70 70 71 72 72 70 67 65 64
58 60 62 62 60 59 59 57 58 60 61 62 63 63 62 61 61 62 65 64 64 67 67 68 73 72 66 62 61 59 57 57 57 59 60 62 63 64 64 65 66 65 65 65 66 66 67 68 68 68 68 69 70 70 68 66 66 67 69 70 71 73 74 75 75 75 73 71 68 67 68 69 70 69 69 70 71 73 74 74 75 75 73 70 66 64
57 57 59 60 59 59 60 59 59 60 60 62 62 61 60 61 61 62 63 63 65 66 64 65 71 71 66 63 62 61 60 61 62 62 63 63 63 64 64 64 62 61 59 58 58 60 61 62 63 64 65 66 68 69 70 68 67 67 69 71 73 75 75 76 76 75 74 71 70 70 71 72 73 73 73 74 75 76 76 76 75 75 73 72 70 67
57 57 58 60 61 62 62 60 59 58 58 58 58 57 57 58 59 61 61 62 65 66 65 67 71 71 68 66 64 62 63 63 63 63 62 61 61 62 63 61 58 56 56 57 57 58 59 60 61 63 65 67 68 70 71 71 71 70 71 72 74 75 76 77 77 77 76 75 74 73 74 75 76 77 76 75 75 76 77 77 76 75 73 71 70 69
60 61 60 60 60 59 60 61 61 61 61 61 61 60 61 62 61 62 62 63 67 68 67 67 69 68 65 64 63 62 63 64 63 64 65 65 66 67 67 65 62 61 61 63 64 65 67 68 69 71 73 75 75 76 77 79 80 80 79 78 77 77 77 78 78 78 78 79 79 78 78 78 79 80 80 79 77 76 76 78 80 80 78 75 73 71
63 64 63 62 62 61 63 65 65 66 68 68 68 68 68 67 65 64 67 69 71 71 69 68 69 70 69 67 67 69 69 69 69 69 70 69 69 69 69 69 69 70 70 70 70 70 72 74 76 79 82 84 85 85 86 86 87 87 88 87 86 85 84 83 83 83 83 83 83 84 83 82 82 83 84 85 85 83 80 80 83 86 85 83 82 79
64 65 64 64 65 65 66 67 66 68 70 71 71 71 70 70 69 70 73 76 74 75 76 75 74 75 75 73 73 75 74 74 74 74 75 74 72 71 72 72 73 74 75 75 75 75 77 79 83 86 87 87 87 88 88 88 89 90 92 92 92 92 91 90 90 89 88 87 87 87 88 88 87 87 85 85 86 87 85 83 84 87 89 88 87 86
64 66 64 64 66 66 66 67 67 68 70 71 72 73 72 71 71 73 75 76 76 78 81 79 78 79 78 75 75 75 75 76 77 77 77 77 77 77 78 79 80 81 82 83 84 84 84 85 86 86 85 85 86 87 88 88 90 91 92 92 93 92 92 92 91 90 88 87 86 87 88 89 90 90 90 87 84 83 84 84 83 84 87 89 89 89
64 66 65 65 68 67 66 67 67 69 71 72 72 72 72 72 72 73 75 75 76 79 81 80 81 81 79 77 76 76 76 76 77 77 77 77 78 79 79 80 82 83 83 84 85 85 84 84 84 84 84 84 85 86 87 88 89 90 90 90 90 90 90 90 89 89 88 87 87 87 88 88 89 90 91 91 88 85 85 85 84 83 84 86 89 90
64 65 65 66 69 70 68 68 69 71 73 74 75 75 75 75 75 76 75 75 77 79 80 80 81 81 79 78 77 77 77 77 77 77 77 77 77 77 78 79 80 81 82 82 83 83 83 82 82 82 81 82 83 84 85 87 88 88 89 90 90 90 91 91 91 91 91 91 91 91 91 91 92 92 93 94 93 92 92 92 91 89 86 85 86 88
65 66 67 68 72 74 71 71 73 75 76 78 79 78 78 78 79 78 78 78 79 80 80 81 82 82 80 79 78 78 79 79 79 79 78 78 78 78 78 78 79 79 80 80 80 80 80 79 79 80 80 80 82 83 84 86 87 88 89 90 91 93 93 94 94 94 94 95 95 96 96 96 96 96 96 97 98 98 98 97 96 95 93 90 87 86
67 69 70 71 75 77 76 76 78 79 80 83 83 81 80 81 81 81 81 80 79 80 82 83 83 81 80 79 79 79 79 79 79 79 78 78 78 78 78 78 78 78 78 78 78 79 79 80 80 81 82 83 84 85 86 88 89 91 91 92 93 95 96 96 97 98 99 99 100 100 100 99 99 99 100 100 101 101 101 100 99 98 97 96 93 89
70 72 73 73 77 80 79 80 81 83 86 88 85 83 83 84 84 84 84 82 80 80 82 84 83 82 80 79 78 78 78 78 77 77 77 78 78 78 78 78 79 79 79 80 80 81 82 83 84 84 85 86 87 88 90 91 92 93 94 95 96 97 98 100 101 102 103 103 103 103 103 103 102 102 102 102 103 103 103 102 102 101 100 99 98 95
72 73 74 76 78 80 81 81 83 88 91 89 86 85 86 85 84 84 84 83 81 80 80 81 81 81 80 79 79 79 78 77 77 76 77 78 78 78 79 79 80 80 81 81 82 83 84 85 86 87 88 89 90 91 92 94 95 95 96 96 97 98 99 100 101 102 103 104 104 104 104 105 105 105 105 105 105 105 104 104 103 103 103 103 102 100
73 74 75 77 79 81 82 82 84 88 90 88 87 86 84 81 79 80 81 81 79 77 76 75 76 76 77 77 77 77 76 77 76 75 76 77 78 78 79 79 80 80 81 81 82 83 84 85 86 87 88 88 89 91 92 94 95 95 95 96 96 96 97 98 98 99 100 101 102 103 104 104 105 106 106 107 107 107 107 106 105 105 105 105 104 104
74 75 76 77 78 79 79 79 81 83 84 85 84 80 76 74 74 75 76 76 74 72 71 70 70 71 73 74 75 75 76 77 76 74 75 77 78 78 78 78 77 78 78 78 79 79 80 82 83 83 85 85 86 87 89 90 91 92 93 93 93 93 93 93 94 95 96 97 98 99 100 101 102 103 104 105 107 108 108 108 107 106 106 106 106 105
76 76 76 76 77 77 76 77 79 80 80 79 77 73 71 70 69 70 71 71 69 68 68 67 67 68 69 70 71 73 74 75 74 72 73 75 75 75 75 74 74 74 75 75 76 76 77 79 80 80 81 82 82 83 84 85 86 87 88 88 88 89 89 89 91 92 93 95 96 96 97 98 98 99 100 101 103 104 106 107 107 107 107 106 106 105
77 76 74 73 74 74 73 73 74 75 74 73 70 67 66 65 63 63 66 67 64 62 63 63 64 65 66 67 69 70 71 72 71 69 68 69 70 70 70 71 71 72 72 73 74 75 76 77 78 78 79 79 79 80 81 82 83 83 84 85 85 86 87 89 91 92 93 93 94 94 95 95 95 96 97 97 98 99 101 103 104 105 105 105 105 105
75 72 70 69 70 69 68 67 68 68 67 65 62 60 58 58 57 58 61 62 59 57 59 60 61 63 64 65 67 68 68 68 67 65 65 65 66 66 67 68 69 70 71 72 74 75 76 76 77 76 76 77 77 78 80 81 81 82 83 85 87 89 91 93 93 93 92 91 91 91 91 91 92 92 93 94 95 96 97 99 100 101 102 103 103 103
69 67 65 66 66 64 62 62 63 62 60 57 55 53 53 53 53 55 56 56 53 54 56 58 58 59 60 62 64 64 64 64 64 64 63 64 65 66 67 68 69 70 70 71 72 73 74 74 74 75 75 76 77 79 81 83 84 85 87 89 91 92 93 93 92 91 90 89 89 89 89 90 90 91 91 92 92 93 94 95 96 98 99 100 101 101
62 61 61 61 60 58 56 57 59 59 56 51 49 50 50 51 51 52 52 52 52 54 56 56 57 58 59 61 63 63 63 63 63 63 63 63 64 65 65 66 67 67 68 69 70 71 73 73 74 75 76 77 79 81 84 86 88 89 90 91 91 92 92 92 91 91 91 90 90 90 90 90 91 91 91 92 92 93 93 93 93 95 96 98 99 99
56 56 56 55 54 53 54 56 57 56 52 48 48 49 50 50 51 51 52 52 53 54 55 57 58 59 61 62 62 61 61 61 60 61 61 61 62 62 63 64 65 66 67 68 69 71 73 74 75 76 77 78 80 82 84 86 88 88 89 89 90 91 91 91 92 92 91 91 91 91 91 92 92 92 92 92 92 93 93 93 93 94 95 95 97 98
53 51 52 52 51 53 54 55 54 51 48 49 50 50 50 51 51 51 52 53 53 54 55 57 59 59 60 61 60 60 60 59 59 59 60 60 61 62 63 64 65 66 67 68 69 70 72 73 74 75 76 77 78 80 82 84 86 87 87 87 88 89 90 90 91 91 91 91 91 91 92 92 93 93 93 93 93 94 94 93 93 94 95 95 96 96
49 47 49 52 53 53 52 52 51 47 46 48 51 49 49 50 50 51 53 53 53 54 56 58 58 58 59 60 61 60 60 59 59 60 60 61 62 62 63 64 65 65 66 67 68 68 69 70 72 73 74 74 75 77 79 81 83 84 85 85 86 87 88 88 89 89 89 89 90 90 91 91 92 92 93 93 93 94 93 93 93 94 94 94 95 95
45 44 49 53 52 52 50 47 46 45 44 47 49 49 48 48 49 51 53 54 54 55 56 58 58 58 58 60 61 61 60 59 60 60 60 61 61 62 62 63 63 63 63 64 65 65 66 68 69 71 72 72 73 75 77 79 81 82 83 83 84 85 85 86 86 86 86 87 87 88 88 88 88 88 88 89 89 90 90 91 92 92 93 93 93 94
41 43 50 53 51 52 50 43 42 44 44 45 47 47 47 48 49 50 52 53 54 55 56 57 57 57 58 59 60 60 60 59 59 59 60 60 60 61 61 61 60 60 60 60 61 62 64 66 68 69 70 70 71 73 76 77 78 79 79 80 81 82 83 83 83 83 83 83 83 83 83 83 83 83 82 82 83 84 84 85 86 88 89 89 90 91
40 44 50 50 49 50 48 41 40 43 44 44 45 46 46 48 49 50 51 52 53 54 55 56 57 57 58 58 59 59 59 58 59 59 59 59 59 58 58 58 57 57 57 58 59 61 63 65 67 68 69 70 72 74 75 75 74 75 76 77 78 79 79 79 78 78 77 77 76 76 77 77 76 76 76 75 76 76 77 77 79 80 82 83 85 86
40 44 47 46 46 48 45 40 40 43 43 42 44 45 46 48 49 50 51 51 52 53 54 55 56 56 57 57 57 57 57 57 58 58 58 57 56 55 55 54 55 56 57 58 59 62 64 66 67 68 70 71 72 73 72 70 70 71 73 74 74 73 72 71 70 70 70 70 69 68 68 68 67 67 66 66 66 66 67 68 69 71 72 74 77 79
39 43 44 45 46 46 43 40 41 45 45 42 43 45 47 48 50 50 51 52 53 54 54 55 56 56 56 56 56 56 56 56 56 56 55 54 53 53 53 54 55 56 57 59 61 63 65 67 68 70 71 71 70 69 67 67 67 69 69 69 68 67 66 65 64 64 65 65 64 63 62 62 61 61 60 59 58 58 57 57 59 61 62 64 66 70
37 41 45 47 47 45 43 41 43 47 47 45 44 46 49 50 51 52 52 52 54 55 55 56 56 55 55 54 54 55 55 55 55 54 53 52 51 52 53 54 55 56 58 61 63 65 66 68 69 70 70 68 66 65 65 64 64 64 64 64 65 64 64 63 63 63 63 64 64 63 62 60 58 58 57 56 56 55 53 52 52 53 55 56 58 61
Wind_Direction
278 278 278 281 284 282 280 282 284 286 287 287 288 288 287 287 288 290 290 288 287 285 285 285 284 285 289 292 290 287 285 284 284 282 281 281 279 277 278 279 281 282 281 278 276 275 274 274 274 272 272 272 273 273 273 273 273 273 274 273 271 268 268 269 270 270 270 270 270 270 271 272 272 271 270 269 268 267 266 264 263 262 263 263 264 264
277 276 278 282 281 279 280 282 283 284 285 286 286 287 286 287 289 290 289 289 289 287 288 288 285 284 286 289 289 289 288 286 283 279 279 282 282 279 278 279 281 283 282 280 277 276 276 276 276 274 272 272 273 275 276 277 277 278 279 277 273 270 267 265 265 266 266 267 267 267 267 267 268 269 270 270 269 269 268 267 265 264 264 264 263 263
275 276 279 280 278 279 281 282 282 283 284 285 286 285 285 287 287 287 288 290 289 288 288 288 288 288 288 287 287 288 290 289 284 278 276 278 281 281 279 279 279 281 283 282 277 274 274 275 277 277 276 277 278 278 279 280 282 283 283 282 279 276 272 268 266 264 264 264 265 266 267 266 266 267 268 270 270 271 271 270 269 267 265 264 264 263
273 276 278 278 278 280 281 281 282 282 282 283 283 283 285 287 286 286 287 288 288 289 289 289 289 289 290 289 289 291 292 291 287 281 277 276 277 279 280 280 280 282 283 282 279 274 272 273 275 277 279 281 282 282 282 283 285 287 287 285 284 282 280 277 273 269 266 264 263 264 265 266 266 265 265 267 269 270 270 270 270 268 267 266 265 265
273 276 277 278 280 280 280 281 280 281 281 280 281 282 284 285 285 285 287 287 287 288 289 290 290 289 289 290 292 295 296 294 292 288 283 280 277 276 278 280 282 283 282 282 282 278 275 274 274 275 277 279 280 283 285 287 287 287 287 287 285 284 283 281 279 277 274 270 267 265 264 264 265 265 264 264 265 266 266 267 267 267 267 267 267 267
272 274 276 277 278 278 278 279 281 282 280 279 281 283 284 285 284 285 286 288 289 289 289 290 290 288 288 290 291 294 296 296 297 297 294 288 284 280 279 280 282 282 281 281 281 281 279 277 276 275 275 275 277 280 284 286 288 287 287 287 286 284 283 282 280 279 277 275 273 271 268 266 265 264 263 262 262 262 263 264 264 265 266 267 268 268
271 272 273 273 274 275 277 279 283 282 280 281 284 286 286 286 286 287 289 290 290 290 290 290 290 289 288 290 292 294 296 294 296 301 299 295 292 288 283 281 282 283 283 283 283 283 282 281 280 280 279 278 278 279 281 282 285 286 287 287 287 285 284 282 281 280 278 277 276 274 272 271 269 267 266 264 262 261 261 262 264 264 265 266 266 267
271 271 271 272 274 277 280 282 282 281 282 286 288 288 288 289 290 291 291 290 288 288 287 287 291 292 287 289 292 294 295 294 294 298 298 298 298 294 289 286 284 284 284 284 285 286 287 287 286 285 284 283 283 283 282 282 283 284 286 285 284 284 283 283 282 280 279 277 276 275 274 273 271 270 269 267 266 264 263 263 264 264 265 265 265 265
271 272 274 277 280 283 285 285 283 284 287 288 289 289 290 290 291 291 290 288 287 286 283 284 292 293 285 285 290 293 295 296 297 297 295 296 298 297 295 293 290 288 287 286 286 287 288 288 289 288 288 287 286 286 285 285 285 285 287 286 285 284 283 283 283 281 279 277 275 274 274 274 273 272 271 269 268 267 265 264 264 263 264 264 264 264
274 276 278 281 285 288 287 286 286 287 288 288 288 288 288 288 289 289 287 287 287 285 283 285 292 293 286 285 288 290 294 296 297 296 294 293 294 294 293 293 293 293 293 293 291 289 288 287 287 288 288 288 288 288 288 288 288 288 288 289 289 288 287 285 284 284 282 279 276 273 272 272 272 272 271 270 269 267 266 265 264 264 263 263 263 263
276 278 280 284 287 288 287 287 287 287 286 286 286 286 287 286 286 286 285 285 284 284 284 285 288 289 286 285 285 288 293 295 294 294 294 292 290 289 288 289 290 292 293 294 294 293 291 290 289 288 288 288 288 288 288 289 289 289 289 289 289 288 287 286 284 283 282 280 278 274 271 269 268 267 268 267 267 267 266 266 265 264 264 263 263 262
277 279 281 284 285 286 287 286 285 284 285 285 286 286 286 285 285 284 283 281 280 281 282 282 282 282 281 282 283 286 290 292 292 293 293 291 289 287 286 287 287 288 289 290 291 291 292 291 290 289 288 287 286 286 287 287 287 287 287 287 287 286 285 284 282 279 276 276 276 274 270 267 265 263 263 262 262 262 263 263 263 263 263 263 262 262
279 280 282 284 285 285 284 283 283 283 284 284 285 286 285 285 285 283 282 281 280 281 281 280 279 278 276 276 278 281 284 287 288 288 287 286 286 285 285 285 286 286 287 287 287 288 289 289 288 288 287 287 287 286 286 285 285 285 284 284 284 283 282 281 278 275 272 269 269 269 267 264 263 261 260 259 259 259 259 259 259 260 260 260 260 260
281 282 283 284 284 284 283 284 284 284 284 284 284 285 284 284 284 283 283 283 283 284 282 281 279 277 276 276 276 278 280 282 283 283 283 284 284 284 283 283 284 285 286 286 287 287 287 288 288 289 289 289 288 288 286 284 282 282 281 280 279 278 276 274 271 269 267 263 262 262 261 260 261 260 258 257 256 256 256 257 257 257 257 257 257 257
282 282 283 284 284 284 284 285 284 283 283 282 283 282 281 282 283 283 284 284 284 284 282 280 279 278 279 279 280 280 280 280 281 281 282 284 285 285 284 283 284 284 285 286 286 286 286 287 287 287 287 287 286 285 284 282 280 279 277 275 272 270 268 266 263 261 259 258 257 255 255 257 260 261 260 258 256 255 254 254 255 255 256 256 255 255
280 279 280 282 284 284 283 282 282 282 281 280 280 279 280 282 283 282 282 282 282 281 279 279 280 281 282 282 282 282 282 283 282 281 281 282 283 284 284 285 285 285 284 283 283 283 284 284 284 283 283 283 282 281 280 280 279 278 277 274 271 266 262 260 258 257 256 255 254 251 251 255 258 258 260 259 257 256 255 253 253 253 254 255 255 255
277 278 279 280 281 281 280 279 279 279 279 280 279 280 283 284 282 281 281 281 281 279 279 281 282 283 283 283 282 283 284 284 282 280 280 280 280 281 282 283 284 283 282 281 281 282 281 281 280 279 278 278 277 277 276 276 275 274 273 272 271 268 263 258 255 255 255 255 254 251 250 255 256 256 258 259 259 258 256 254 252 251 251 252 254 255
278 279 278 277 278 278 278 278 279 279 279 280 281 283 285 282 280 279 280 280 280 280 280 282 281 281 281 282 284 284 285 283 281 281 280 280 280 280 280 280 280 280 280 280 280 280 279 278 277 276 275 275 274 274 273 272 271 269 268 268 268 267 264 259 254 253 254 255 255 253 252 255 256 253 254 255 257 258 258 256 254 252 251 250 251 252
281 279 277 276 277 278 279 280 281 282 283 283 285 285 283 280 279 279 279 280 281 281 281 282 280 279 280 284 287 286 284 283 281 280 280 280 279 279 279 280 280 280 279 278 277 277 276 276 275 274 274 274 273 272 271 269 268 266 265 264 264 263 262 260 256 255 257 257 257 256 254 254 254 252 252 252 253 255 256 257 256 254 252 251 250 250
279 278 277 279 279 279 281 282 284 286 286 285 283 281 278 277 278 279 278 280 281 280 280 280 278 279 283 287 288 285 284 283 282 281 280 279 278 277 277 278 279 279 278 277 276 275 274 273 272 272 271 271 270 269 269 267 266 264 263 262 261 260 260 259 258 259 261 262 262 260 256 254 253 252 251 250 250 251 253 255 256 256 254 253 252 251
279 278 279 281 280 280 282 284 286 286 284 282 279 278 278 278 278 277 276 277 278 277 277 277 277 279 283 286 285 284 284 283 281 280 280 279 277 277 276 276 276 276 276 276 275 273 271 269 268 268 268 268 266 266 266 265 264 263 262 260 259 258 258 258 259 261 263 265 265 262 258 255 253 252 250 249 250 250 251 253 255 256 255 254 254 253
279 279 280 281 282 282 283 284 283 281 279 278 277 277 277 278 277 276 274 276 277 276 276 277 278 280 282 284 284 283 283 282 280 279 279 279 278 278 278 277 276 275 274 273 271 270 269 268 267 266 265 265 264 264 264 263 262 261 260 259 259 259 260 261 262 262 264 264 262 258 256 254 253 252 250 249 249 249 250 251 252 254 254 254 255 255
280 280 281 282 282 281 281 281 280 279 278 277 276 276 277 276 276 275 276 278 278 277 278 279 279 281 283 284 283 282 281 280 278 278 279 279 279 279 278 277 276 274 272 271 269 269 268 268 267 266 266 266 265 265 264 263 262 260 259 259 261 262 263 264 264 263 263 263 260 257 255 253 253 253 251 250 249 248 248 248 249 250 252 253 254 255
281 280 280 281 281 281 281 281 280 278 277 276 275 275 275 274 275 275 276 278 278 278 279 279 279 281 283 283 281 281 280 279 278 278 278 277 277 277 276 276 274 270 268 267 268 268 268 267 267 267 267 267 267 267 266 264 262 260 259 260 261 263 263 263 263 263 263 262 260 257 255 253 252 252 252 253 252 250 249 248 247 248 249 251 252 253
280 279 279 280 281 281 282 282 281 280 278 275 274 275 275 275 275 275 276 277 276 275 276 276 276 278 280 280 279 279 279 279 279 279 278 276 277 277 276 274 269 264 262 263 264 264 264 265 265 265 266 266 267 267 267 267 265 264 263 262 262 261 261 261 261 262 262 262 261 258 256 254 252 250 250 250 250 251 252 252 251 249 250 251 252 253
279 278 279 279 279 280 281 281 281 280 279 276 276 276 277 277 277 279 279 277 275 276 276 275 276 279 279 278 279 279 278 277 277 277 276 277 277 276 274 270 266 263 262 263 264 264 264 264 265 266 266 266 266 267 267 268 268 268 268 267 265 263 261 260 260 260 261 262 262 261 259 257 255 253 253 253 252 250 251 254 255 255 254 254 255 256
276 276 276 276 277 277 278 279 279 279 278 277 277 277 277 277 277 278 277 275 275 277 275 274 276 277 276 276 277 277 276 276 275 274 274 274 273 270 267 265 263 262 263 263 264 265 265 265 267 269 270 269 269 269 269 269 269 269 269 269 269 268 266 264 263 263 262 262 261 261 261 260 259 257 257 258 258 256 254 254 256 258 259 258 257 257
274 274 274 275 276 276 277 278 278 278 277 278 277 277 277 277 276 276 275 276 277 276 274 274 276 275 275 276 276 275 275 274 273 272 271 270 269 267 265 263 263 264 264 265 266 266 266 267 270 272 272 271 271 271 271 270 270 270 270 271 271 271 270 269 268 267 266 264 263 262 261 261 261 261 261 260 261 262 262 260 258 258 259 261 260 258
274 275 277 277 276 276 276 277 278 278 277 277 277 278 277 277 276 276 276 276 277 276 276 278 278 276 276 277 276 275 274 273 272 271 270 270 269 268 267 267 267 268 269 270 270 271 271 271 271 272 271 271 271 270 270 270 270 270 271 272 272 272 272 271 271 270 268 266 264 263 262 262 261 261 261 261 262 263 264 264 263 261 260 260 261 260
275 276 278 278 277 277 277 278 279 279 278 278 278 278 278 279 279 278 277 277 277 277 277 278 277 276 276 276 275 274 272 272 271 271 271 271 270 270 269 269 269 270 270 271 271 272 272 272 272 271 271 271 271 271 271 271 271 271 271 271 271 271 271 271 271 271 270 269 267 265 264 263 262 261 261 260 261 262 263 264 264 263 262 261 261 260
275 277 278 279 279 279 281 282 282 280 280 280 279 279 281 282 281 279 278 278 276 275 276 276 276 275 275 274 273 272 271 271 271 271 271 271 271 271 271 271 271 271 271 272 272 272 272 272 271 271 271 271 271 272 272 272 272 272 271 271 270 270 269 269 269 270 270 270 270 269 268 267 266 264 263 261 261 261 262 263 264 263 262 261 260 260
278 279 281 281 281 282 284 284 283 282 281 280 280 282 284 283 282 280 279 277 276 276 276 275 275 275 275 273 272 271 271 271 271 272 272 272 272 272 272 272 272 272 273 273 273 273 272 272 272 272 271 272 272 272 272 272 272 272 271 271 270 270 269 269 269 269 269 270 270 270 270 270 269 268 267 266 264 263 262 262 262 262 261 260 259 259
281 282 283 284 284 285 285 285 285 283 281 280 283 286 285 283 281 279 277 276 276 276 276 275 275 275 274 273 273 273 272 272 273 273 274 274 274 274 274 274 274 274 274 274 274 274 273 273 273 273 273 273 273 273 273 273 272 272 272 272 271 271 271 271 270 270 270 271 271 270 270 270 269 269 268 268 268 267 265 263 262 260 260 259 259 258
283 284 285 285 285 285 287 287 285 282 281 284 287 287 284 282 281 278 276 276 276 274 273 274 275 275 274 274 274 273 273 273 274 274 275 275 275 275 275 275 275 275 275 275 275 275 275 275 275 275 275 275 274 274 274 274 273 273 273 272 272 272 272 271 271 271 271 271 270 270 269 269 268 268 267 267 267 268 268 267 265 263 260 259 258 257
284 284 284 284 284 285 285 284 281 280 284 287 287 284 283 281 279 278 278 278 277 276 275 275 276 276 277 276 276 275 275 275 275 275 276 276 276 276 276 276 276 276 276 276 276 276 276 277 277 277 277 277 277 277 276 276 275 275 274 274 274 273 273 273 272 272 271 271 270 269 269 268 268 267 266 266 266 265 266 266 266 265 263 261 259 257
283 283 283 283 283 283 283 282 280 281 284 285 283 283 283 281 280 280 280 279 278 278 278 278 278 278 279 279 278 278 278 277 276 276 277 277 277 277 277 277 277 278 278 279 279 279 280 280 280 280 280 279 279 279 279 278 278 277 277 277 277 276 276 275 275 274 273 272 271 270 269 268 268 267 266 265 265 264 264 263 264 264 264 263 261 259
283 282 282 282 282 281 281 280 279 280 281 281 282 283 283 282 282 281 280 280 279 279 279 280 280 280 279 279 279 279 278 278 277 277 278 278 278 278 279 280 280 281 281 282 282 282 282 282 281 281 281 281 280 280 280 280 279 279 279 279 278 278 277 277 277 276 275 274 273 272 271 270 269 267 266 265 264 264 263 262 262 262 262 262 262 261
281 281 281 280 280 280 279 278 278 279 279 281 282 283 282 283 282 282 281 280 279 279 280 281 281 280 279 278 278 277 277 277 277 277 278 279 280 281 281 282 282 282 282 282 282 282 282 281 281 281 281 281 280 280 280 280 280 279 279 279 278 278 278 277 277 276 276 276 275 275 274 273 272 270 268 267 265 264 263 262 261 261 260 260 260 260
281 281 280 279 279 279 279 278 279 280 281 283 284 284 285 285 284 284 283 282 281 281 281 280 279 279 278 278 277 277 277 278 278 279 280 281 282 283 283 283 283 283 283 282 282 282 281 281 281 282 282 282 282 281 281 281 280 280 280 279 279 279 279 279 278 278 278 278 277 276 276 275 274 273 272 270 268 267 265 264 262 261 260 260 259 259
281 280 279 278 279 279 279 279 280 281 282 285 286 287 287 286 284 284 283 284 285 283 281 279 279 278 278 279 278 279 280 281 282 282 282 283 284 284 284 283 283 283 283 283 283 283 283 283 283 284 284 284 284 283 283 282 282 282 281 281 281 281 281 281 281 280 280 279 278 277 277 276 275 274 273 272 271 269 268 267 265 263 262 261 260 259
280 279 279 279 279 280 280 281 282 282 283 286 288 288 286 284 283 283 284 285 285 283 281 280 279 279 279 279 279 281 282 283 284 285 284 284 284 284 284 284 284 284 284 284 285 285 285 285 285 285 286 286 286 285 285 284 284 283 283 283 283 283 283 282 282 281 281 280 279 278 278 277 276 275 274 273 272 271 270 269 268 266 265 263 262 260
280 279 279 280 281 282 282 282 282 282 284 287 288 286 285 284 284 284 283 283 282 281 281 280 279 279 279 279 281 283 284 285 285 286 285 285 285 285 285 285 285 285 286 286 286 287 287 287 287 287 287 287 287 287 287 286 286 285 285 285 285 285 284 284 284 283 283 282 281 280 279 278 277 276 275 274 273 272 270 269 268 268 267 266 264 263
279 279 280 282 283 282 280 279 280 284 288 290 288 286 286 285 284 283 283 282 281 281 280 280 280 281 282 283 284 285 285 286 286 286 286 286 286 286 286 287 287 287 288 288 288 289 289 289 289 289 289 289 289 289 288 288 287 287 287 287 287 286 286 286 286 285 285 284 283 282 281 279 278 277 276 274 273 272 270 269 268 267 266 265 265 264
279 281 283 282 279 278 278 279 282 287 291 290 288 287 286 284 284 283 283 282 281 281 281 281 282 283 285 286 286 286 286 287 287 287 287 287 287 288 288 288 289 290 290 290 290 291 291 291 291 291 290 291 291 291 290 290 289 289 288 288 288 287 287 287 286 285 284 284 283 281 280 279 278 277 276 275 273 272 271 269 268 267 265 265 264 263
279 281 281 278 276 276 278 280 284 288 290 288 286 285 284 284 285 285 283 282 282 283 283 283 284 285 286 287 287 287 288 288 288 288 287 288 288 288 289 289 290 291 291 291 292 292 293 293 293 293 292 293 293 292 291 291 291 290 290 289 289 288 287 286 285 285 284 283 282 281 280 279 278 277 276 275 274 272 271 270 269 267 266 265 263 263
280 281 278 276 276 277 278 281 286 287 286 284 283 284 284 284 284 284 284 285 285 285 285 286 287 287 287 287 287 288 288 288 288 288 288 288 289 290 290 290 291 291 292 293 293 294 295 296 296 295 295 295 294 294 293 293 293 293 292 291 290 289 288 287 286 285 284 284 283 282 281 280 279 278 277 275 274 273 272 271 269 268 267 265 264 263
280 279 276 276 278 279 280 284 287 285 282 281 281 283 285 284 284 283 284 285 286 286 286 287 287 286 286 286 286 287 287 287 287 288 289 289 290 290 290 291 292 293 294 295 297 298 298 298 298 298 298 297 296 296 296 295 295 295 294 292 291 289 288 288 288 287 287 286 285 284 283 282 281 280 278 277 275 274 273 271 270 269 268 266 265 263
280 276 275 277 280 280 282 284 283 280 278 279 281 282 283 283 284 284 285 286 286 286 286 286 285 285 285 285 286 286 287 287 288 288 289 289 290 290 291 292 293 295 297 299 300 301 301 301 301 301 300 300 299 298 298 297 297 296 294 292 290 290 289 289 289 289 289 288 287 286 285 285 284 282 281 279 278 276 274 273 271 270 268 268 266 265
280 277 278 280 280 280 282 283 281 278 277 278 281 282 283 283 284 286 286 287 287 286 286 286 286 287 286 286 286 287 288 288 288 289 289 289 290 291 292 294 296 298 300 301 302 303 304 305 304 304 303 303 301 300 299 298 297 295 293 292 291 291 292 292 292 292 291 291 291 290 290 289 288 287 286 284 282 280 278 276 274 272 270 269 268 267
281 280 281 280 279 279 282 284 284 281 279 279 281 283 283 285 286 287 287 287 286 286 287 287 287 287 287 287 287 287 287 287 287 288 289 290 291 293 295 297 299 300 302 303 303 305 307 307 307 307 306 305 303 302 301 299 297 295 294 294 295 295 295 295 294 294 294 294 294 294 292 291 290 289 288 287 286 284 282 281 279 277 274 272 270 269
282 281 281 281 282 283 283 284 284 282 282 282 282 283 284 286 287 287 287 287 287 287 287 287 287 287 286 286 286 286 286 286 286 287 289 291 293 295 298 299 300 302 303 304 305 308 309 309 309 308 307 306 305 304 302 300 298 298 298 298 298 298 298 297 297 297 297 298 297 296 295 293 291 288 287 286 285 284 283 281 280 279 277 275 273 271
Height
5813 5810 5809 5813 5815 5812 5808 5807 5806 5804 5803 5801 5800 5798 5797 5795 5795 5800 5799 5797 5797 5792 5792 5797 5794 5789 5788 5788 5791 5793 5795 5796 5796 5794 5791 5790 5789 5789 5788 5787 5787 5787 5786 5786 5785 5785 5784 5783 5783 5782 5780 5779 5778 5777 5777 5776 5776 5777 5777 5777 5776 5776 5775 5775 5774 5774 5774 5773 5773 5773 5773 5773 5774 5774 5774 5776 5777 5777 5777 5776 5775 5775 5775 5775 5775 5774
5807 5804 5806 5810 5808 5805 5804 5803 5802 5800 5799 5797 5795 5792 5791 5791 5790 5792 5792 5791 5791 5787 5784 5787 5786 5786 5787 5784 5783 5785 5788 5790 5791 5789 5787 5785 5783 5783 5784 5784 5784 5783 5782 5783 5783 5782 5781 5779 5779 5779 5777 5776 5775 5774 5773 5773 5772 5772 5772 5772 5771 5771 5770 5770 5769 5769 5768 5768 5768 5767 5767 5767 5767 5768 5769 5769 5771 5771 5771 5771 5771 5771 5771 5770 5769 5769
5800 5799 5803 5803 5801 5799 5799 5798 5797 5795 5794 5792 5790 5788 5786 5787 5786 5785 5787 5786 5785 5782 5780 5779 5778 5778 5781 5781 5778 5780 5782 5783 5784 5784 5783 5781 5777 5777 5779 5780 5780 5780 5778 5778 5779 5778 5777 5776 5775 5774 5773 5772 5771 5771 5770 5769 5768 5767 5767 5767 5767 5767 5766 5765 5765 5764 5763 5762 5762 5762 5762 5762 5762 5763 5763 5763 5764 5765 5765 5765 5765 5766 5765 5765 5764 5763
5794 5795 5798 5796 5795 5795 5794 5793 5792 5790 5790 5788 5786 5783 5782 5783 5781 5778 5780 5781 5779 5778 5775 5773 5772 5771 5772 5772 5772 5774 5776 5776 5776 5777 5777 5776 5774 5774 5774 5775 5776 5776 5775 5773 5773 5774 5773 5772 5771 5769 5769 5768 5767 5767 5766 5765 5764 5763 5763 5762 5763 5763 5762 5762 5761 5760 5759 5758 5757 5757 5757 5757 5756 5757 5757 5757 5757 5758 5758 5758 5758 5758 5758 5758 5758 5757
5790 5791 5791 5791 5790 5789 5788 5787 5786 5785 5785 5784 5782 5780 5779 5779 5778 5774 5773 5773 5773 5774 5771 5769 5767 5765 5765 5765 5766 5768 5769 5768 5768 5768 5768 5769 5769 5771 5771 5770 5771 5771 5770 5769 5768 5768 5768 5768 5767 5766 5765 5764 5763 5762 5761 5761 5760 5758 5758 5757 5757 5757 5757 5757 5757 5756 5755 5755 5754 5753 5752 5751 5751 5750 5750 5750 5750 5750 5750 5750 5750 5750 5751 5751 5751 5751
5787 5787 5786 5786 5784 5783 5783 5782 5781 5780 5779 5778 5778 5777 5775 5774 5773 5772 5769 5766 5765 5766 5767 5767 5763 5761 5761 5761 5762 5763 5762 5761 5760 5758 5758 5760 5763 5766 5768 5767 5766 5765 5764 5764 5763 5762 5763 5762 5762 5761 5761 5760 5759 5758 5757 5756 5755 5754 5752 5752 5751 5752 5752 5752 5752 5751 5750 5750 5749 5749 5748 5747 5746 5745 5745 5744 5743 5743 5742 5742 5742 5743 5743 5743 5744 5745
5782 5782 5781 5781 5779 5778 5778 5778 5777 5775 5772 5773 5774 5772 5771 5770 5768 5767 5766 5763 5760 5758 5759 5761 5759 5757 5756 5756 5757 5759 5758 5756 5756 5753 5749 5751 5755 5758 5761 5762 5760 5758 5757 5756 5756 5755 5756 5756 5756 5755 5755 5755 5754 5753 5752 5751 5750 5749 5748 5747 5745 5745 5745 5745 5745 5745 5745 5744 5744 5743 5743 5742 5742 5741 5740 5739 5738 5737 5737 5736 5736 5736 5736 5736 5737 5737
5777 5776 5776 5775 5774 5773 5774 5774 5772 5769 5767 5768 5768 5767 5765 5765 5764 5762 5761 5759 5757 5755 5753 5754 5755 5754 5752 5750 5750 5752 5752 5749 5750 5751 5746 5744 5747 5748 5750 5754 5753 5752 5751 5750 5749 5748 5748 5748 5749 5749 5748 5748 5747 5746 5746 5746 5745 5743 5743 5742 5741 5740 5739 5739 5738 5738 5738 5738 5738 5738 5737 5737 5736 5735 5735 5734 5733 5733 5732 5731 5731 5731 5730 5730 5730 5730
5770 5769 5769 5769 5768 5768 5768 5768 5765 5763 5763 5763 5762 5761 5760 5759 5759 5758 5757 5755 5754 5752 5750 5750 5751 5751 5749 5748 5745 5743 5744 5743 5742 5745 5744 5741 5741 5741 5741 5742 5742 5743 5743 5743 5743 5742 5742 5741 5741 5741 5740 5740 5740 5740 5739 5739 5738 5737 5736 5736 5736 5735 5734 5734 5733 5732 5732 5732 5731 5731 5731 5731 5730 5730 5729 5729 5728 5727 5727 5726 5725 5725 5724 5723 5723 5722
5763 5763 5762 5762 5762 5762 5762 5760 5759 5758 5757 5757 5757 5755 5754 5754 5753 5753 5752 5751 5749 5749 5748 5747 5747 5747 5746 5744 5742 5737 5736 5738 5737 5736 5738 5739 5738 5737 5735 5733 5732 5732 5732 5733 5734 5735 5735 5735 5734 5733 5733 5732 5732 5732 5731 5731 5730 5730 5728 5728 5728 5728 5728 5727 5727 5726 5725 5725 5724 5724 5723 5723 5723 5723 5723 5722 5722 5722 5721 5720 5719 5718 5718 5717 5716 5715
5757 5756 5755 5755 5755 5755 5754 5753 5753 5752 5751 5751 5750 5750 5749 5748 5748 5746 5746 5746 5743 5744 5746 5745 5743 5744 5743 5740 5737 5734 5731 5730 5731 5731 5730 5733 5735 5733 5730 5727 5726 5725 5725 5724 5723 5723 5723 5724 5725 5724 5725 5725 5724 5724 5724 5723 5722 5721 5720 5719 5719 5719 5720 5720 5720 5719 5719 5718 5717 5716 5716 5715 5715 5715 5715 5714 5714 5714 5714 5713 5713 5712 5711 5711 5710 5709
5750 5750 5749 5749 5749 5749 5748 5747 5747 5746 5745 5745 5744 5744 5742 5740 5740 5738 5739 5739 5737 5739 5742 5741 5739 5738 5741 5739 5732 5731 5729 5722 5724 5727 5724 5723 5725 5726 5724 5722 5721 5720 5719 5718 5716 5715 5714 5713 5713 5714 5714 5715 5715 5715 5715 5715 5714 5713 5712 5711 5710 5710 5711 5711 5711 5711 5711 5711 5710 5709 5708 5707 5707 5707 5706 5706 5706 5706 5706 5705 5705 5705 5705 5704 5704 5703
5743 5743 5743 5743 5743 5743 5742 5740 5740 5739 5739 5738 5737 5737 5734 5732 5732 5729 5730 5730 5730 5734 5735 5734 5732 5729 5735 5737 5729 5728 5727 5719 5720 5722 5718 5716 5716 5717 5717 5714 5714 5713 5712 5711 5710 5708 5707 5706 5704 5704 5705 5704 5704 5704 5705 5704 5704 5704 5703 5703 5702 5702 5702 5702 5702 5702 5702 5702 5702 5701 5700 5699 5698 5698 5698 5698 5698 5697 5697 5697 5697 5696 5696 5696 5696 5696
5735 5736 5737 5737 5736 5737 5735 5734 5733 5733 5732 5731 5730 5730 5727 5726 5724 5720 5721 5722 5722 5725 5725 5724 5723 5720 5725 5728 5723 5724 5722 5717 5718 5716 5710 5708 5708 5709 5709 5707 5706 5705 5703 5702 5701 5699 5698 5698 5696 5695 5694 5694 5694 5693 5693 5693 5692 5692 5692 5692 5692 5692 5693 5693 5693 5693 5693 5693 5693 5692 5691 5691 5690 5689 5688 5688 5688 5688 5688 5688 5688 5688 5687 5687 5687 5687
5726 5728 5731 5729 5728 5730 5730 5728 5726 5725 5725 5724 5724 5722 5720 5721 5719 5713 5714 5715 5714 5714 5712 5713 5712 5712 5718 5719 5714 5715 5716 5715 5712 5708 5703 5701 5699 5699 5700 5701 5700 5698 5696 5694 5692 5691 5690 5689 5688 5687 5686 5685 5684 5683 5683 5682 5682 5682 5682 5682 5682 5682 5683 5683 5684 5684 5684 5683 5683 5683 5683 5683 5682 5681 5680 5679 5679 5679 5679 5679 5679 5679 5679 5679 5678 5678
5720 5722 5726 5723 5720 5722 5723 5722 5720 5718 5716 5716 5717 5715 5714 5716 5715 5708 5706 5706 5705 5702 5699 5702 5702 5702 5709 5712 5706 5702 5707 5711 5704 5699 5699 5696 5692 5691 5690 5691 5692 5690 5689 5687 5685 5684 5683 5681 5680 5679 5678 5677 5676 5674 5674 5673 5673 5673 5673 5673 5673 5673 5673 5674 5674 5674 5674 5674 5674 5674 5674 5674 5674 5673 5672 5671 5670 5670 5670 5669 5669 5669 5669 5669 5669 5669
5712 5716 5722 5719 5714 5713 5713 5714 5714 5712 5710 5709 5709 5709 5710 5710 5707 5701 5696 5696 5696 5689 5687 5692 5693 5694 5697 5700 5699 5695 5697 5702 5695 5691 5691 5688 5686 5685 5682 5682 5682 5681 5681 5679 5678 5676 5675 5674 5672 5671 5671 5670 5669 5668 5666 5665 5664 5664 5664 5664 5664 5664 5664 5664 5664 5664 5665 5665 5664 5664 5664 5664 5664 5663 5662 5662 5661 5661 5661 5660 5659 5659 5658 5659 5659 5659
5705 5707 5713 5713 5707 5704 5704 5705 5706 5705 5704 5701 5701 5703 5704 5701 5697 5694 5688 5687 5686 5679 5677 5682 5684 5686 5687 5689 5692 5690 5688 5689 5685 5682 5682 5680 5679 5677 5675 5674 5673 5673 5672 5670 5670 5667 5665 5665 5663 5662 5662 5661 5661 5660 5658 5657 5655 5655 5654 5654 5655 5654 5654 5654 5654 5654 5654 5655 5654 5654 5654 5653 5653 5653 5653 5652 5652 5651 5651 5650 5650 5649 5649 5649 5648 5648
5697 5695 5700 5705 5701 5695 5695 5697 5697 5697 5696 5694 5693 5695 5695 5690 5687 5687 5682 5679 5678 5671 5668 5672 5672 5674 5677 5680 5684 5681 5678 5677 5674 5673 5672 5671 5670 5667 5666 5665 5663 5663 5663 5661 5660 5658 5656 5655 5654 5653 5652 5651 5651 5650 5649 5648 5647 5646 5645 5645 5645 5644 5645 5644 5644 5643 5643 5644 5644 5644 5644 5643 5642 5642 5642 5642 5642 5642 5641 5640 5640 5640 5640 5640 5639 5639
5690 5684 5686 5696 5695 5687 5686 5689 5690 5690 5688 5686 5684 5684 5685 5682 5679 5678 5674 5672 5671 5664 5661 5662 5661 5662 5666 5672 5674 5670 5667 5666 5664 5662 5662 5661 5661 5659 5657 5655 5653 5652 5651 5650 5650 5649 5647 5646 5645 5644 5642 5641 5641 5640 5640 5639 5638 5637 5636 5636 5636 5635 5635 5635 5634 5633 5633 5633 5633 5633 5633 5632 5632 5632 5632 5632 5633 5633 5632 5631 5630 5630 5630 5630 5631 5630
5682 5676 5675 5683 5687 5682 5680 5681 5683 5683 5679 5677 5674 5674 5675 5674 5672 5669 5664 5666 5665 5657 5654 5653 5649 5652 5659 5662 5663 5659 5657 5656 5654 5652 5651 5651 5650 5649 5648 5646 5645 5643 5641 5640 5639 5638 5637 5636 5635 5634 5633 5632 5632 5631 5631 5631 5629 5629 5628 5627 5627 5626 5626 5625 5625 5625 5624 5624 5623 5623 5623 5622 5622 5622 5622 5623 5623 5623 5623 5622 5621 5620 5621 5621 5621 5621
5673 5669 5666 5669 5674 5675 5675 5675 5675 5672 5670 5668 5665 5665 5666 5666 5665 5660 5653 5657 5659 5650 5647 5645 5636 5640 5650 5652 5650 5649 5647 5646 5646 5644 5642 5641 5640 5638 5637 5636 5635 5633 5631 5630 5628 5627 5626 5626 5625 5624 5623 5623 5622 5621 5621 5621 5620 5620 5619 5619 5618 5618 5617 5616 5616 5615 5615 5615 5614 5613 5613 5612 5612 5612 5612 5613 5613 5613 5613 5613 5612 5611 5611 5612 5612 5611
5665 5661 5658 5658 5662 5664 5666 5668 5667 5662 5661 5659 5656 5657 5659 5657 5657 5653 5645 5647 5649 5641 5640 5638 5625 5626 5639 5642 5639 5638 5637 5636 5636 5635 5634 5632 5630 5629 5627 5625 5624 5622 5621 5619 5618 5617 5616 5615 5615 5614 5614 5613 5612 5612 5612 5612 5611 5611 5610 5610 5609 5608 5607 5606 5606 5605 5604 5604 5604 5604 5604 5603 5603 5603 5603 5603 5602 5602 5602 5602 5602 5602 5602 5602 5602 5602
5656 5654 5650 5648 5651 5652 5655 5658 5658 5655 5653 5650 5647 5649 5650 5648 5649 5646 5641 5640 5636 5631 5633 5629 5616 5616 5628 5631 5629 5628 5628 5626 5626 5626 5625 5623 5622 5620 5618 5616 5614 5612 5611 5610 5609 5608 5607 5606 5605 5605 5604 5603 5603 5602 5602 5602 5602 5601 5600 5600 5599 5598 5597 5596 5595 5594 5594 5593 5593 5593 5593 5593 5592 5592 5592 5592 5592 5592 5591 5591 5591 5591 5591 5592 5592 5592
5647 5645 5643 5640 5640 5641 5643 5646 5647 5646 5644 5640 5639 5641 5641 5640 5640 5637 5636 5634 5625 5622 5627 5621 5610 5613 5621 5621 5620 5621 5618 5616 5616 5615 5614 5613 5612 5611 5609 5607 5605 5603 5602 5601 5600 5599 5598 5597 5596 5595 5594 5594 5593 5592 5591 5590 5590 5590 5590 5589 5588 5587 5586 5585 5584 5583 5582 5582 5581 5581 5581 5581 5581 5580 5580 5580 5581 5581 5580 5580 5580 5580 5580 5581 5581 5581
5637 5636 5636 5634 5631 5631 5633 5636 5637 5636 5634 5631 5631 5633 5632 5632 5632 5629 5627 5623 5615 5613 5617 5611 5605 5608 5613 5612 5612 5612 5610 5608 5608 5606 5604 5604 5603 5602 5600 5598 5597 5595 5593 5592 5591 5590 5589 5588 5587 5586 5585 5583 5582 5581 5580 5578 5578 5577 5576 5576 5576 5576 5575 5574 5573 5572 5571 5571 5570 5570 5569 5569 5569 5568 5568 5568 5569 5569 5570 5570 5569 5569 5569 5570 5570 5570
5628 5627 5629 5628 5624 5624 5624 5626 5628 5626 5621 5620 5621 5623 5623 5623 5625 5622 5615 5610 5608 5606 5602 5602 5603 5600 5602 5606 5604 5602 5601 5599 5599 5597 5595 5594 5593 5592 5591 5589 5588 5586 5584 5582 5581 5579 5578 5578 5577 5576 5575 5573 5570 5569 5567 5566 5565 5564 5563 5562 5561 5561 5562 5562 5561 5561 5560 5559 5559 5558 5557 5557 5557 5556 5556 5556 5556 5557 5558 5559 5559 5558 5557 5557 5558 5559
5618 5616 5621 5621 5616 5617 5617 5616 5619 5616 5611 5610 5610 5611 5613 5614 5615 5612 5604 5601 5602 5595 5586 5593 5600 5591 5590 5598 5595 5590 5590 5588 5587 5586 5584 5583 5583 5581 5581 5579 5577 5576 5574 5572 5571 5569 5568 5567 5566 5565 5564 5561 5559 5557 5555 5554 5553 5551 5550 5548 5547 5547 5547 5547 5547 5547 5547 5547 5546 5546 5545 5545 5544 5544 5543 5543 5543 5543 5544 5545 5546 5546 5545 5545 5545 5546
5609 5605 5611 5611 5606 5608 5609 5608 5609 5607 5602 5601 5600 5599 5602 5603 5603 5601 5596 5594 5593 5584 5576 5583 5587 5580 5580 5586 5583 5579 5578 5575 5573 5572 5571 5571 5571 5570 5570 5568 5566 5564 5563 5561 5560 5559 5558 5556 5555 5554 5552 5550 5548 5545 5544 5542 5541 5540 5538 5536 5535 5533 5532 5532 5532 5532 5533 5533 5533 5533 5532 5532 5531 5531 5530 5530 5531 5531 5531 5532 5532 5533 5533 5533 5532 5533
5601 5598 5602 5600 5595 5597 5600 5600 5600 5596 5591 5590 5590 5589 5590 5591 5592 5590 5586 5585 5583 5575 5571 5573 5570 5567 5571 5574 5570 5567 5565 5562 5560 5559 5559 5558 5558 5558 5558 5557 5555 5553 5552 5551 5549 5548 5546 5544 5543 5541 5540 5538 5536 5534 5532 5530 5529 5528 5527 5525 5523 5522 5520 5519 5518 5518 5518 5518 5518 5518 5518 5518 5518 5518 5517 5517 5517 5518 5518 5519 5519 5519 5520 5520 5520 5520
5593 5591 5593 5591 5584 5584 5590 5591 5588 5583 5580 5578 5577 5579 5581 5581 5579 5577 5575 5575 5571 5564 5564 5563 5556 5554 5559 5561 5557 5554 5552 5550 5549 5547 5547 5546 5545 5545 5545 5544 5544 5542 5540 5539 5538 5536 5534 5532 5531 5530 5528 5527 5525 5522 5520 5518 5516 5515 5514 5513 5511 5509 5508 5507 5506 5505 5504 5503 5503 5503 5503 5503 5503 5503 5503 5502 5502 5502 5503 5503 5504 5505 5506 5506 5507 5507
5585 5582 5583 5582 5573 5571 5579 5579 5573 5571 5568 5563 5565 5571 5573 5570 5566 5564 5563 5562 5559 5554 5553 5550 5544 5543 5546 5545 5542 5540 5539 5539 5538 5536 5536 5535 5533 5534 5533 5533 5532 5530 5528 5527 5525 5523 5521 5520 5519 5518 5517 5515 5514 5511 5508 5506 5504 5502 5501 5500 5498 5496 5495 5493 5492 5491 5490 5489 5488 5488 5488 5487 5487 5487 5486 5485 5485 5486 5487 5488 5489 5489 5490 5492 5493 5493
5577 5572 5572 5571 5561 5558 5566 5566 5559 5556 5550 5547 5557 5565 5563 5558 5554 5551 5549 5549 5550 5547 5540 5534 5532 5532 5531 5529 5528 5527 5527 5527 5527 5526 5525 5523 5522 5521 5521 5520 5519 5517 5516 5515 5513 5511 5509 5508 5507 5505 5505 5503 5501 5499 5496 5493 5491 5489 5488 5487 5485 5483 5481 5479 5478 5476 5475 5474 5473 5472 5472 5472 5472 5471 5470 5469 5468 5468 5469 5471 5473 5474 5474 5475 5477 5479
5567 5563 5561 5560 5551 5546 5552 5553 5544 5537 5532 5535 5548 5553 5548 5545 5542 5537 5535 5537 5540 5537 5529 5522 5519 5518 5517 5516 5516 5515 5515 5516 5516 5516 5514 5511 5509 5509 5508 5508 5507 5505 5504 5502 5500 5499 5496 5495 5494 5492 5491 5490 5488 5486 5483 5480 5478 5476 5475 5473 5471 5469 5467 5465 5463 5461 5459 5459 5458 5457 5457 5456 5455 5455 5454 5454 5452 5451 5451 5452 5453 5456 5457 5458 5460 5462
5556 5554 5550 5548 5543 5536 5539 5540 5529 5519 5522 5529 5533 5534 5533 5532 5528 5523 5522 5525 5526 5522 5517 5513 5508 5506 5505 5504 5502 5502 5503 5504 5505 5505 5503 5498 5497 5498 5497 5496 5494 5492 5491 5489 5488 5486 5483 5482 5480 5479 5478 5476 5474 5471 5468 5465 5463 5462 5461 5459 5456 5454 5452 5449 5448 5445 5443 5442 5442 5441 5441 5439 5438 5438 5437 5437 5436 5436 5436 5435 5435 5436 5438 5440 5443 5445
5546 5544 5539 5536 5534 5527 5525 5525 5515 5508 5514 5518 5517 5519 5520 5518 5516 5512 5508 5510 5512 5508 5505 5502 5498 5496 5494 5491 5489 5489 5490 5491 5493 5495 5491 5484 5484 5486 5485 5483 5482 5480 5478 5476 5474 5472 5470 5468 5466 5465 5464 5462 5460 5457 5453 5450 5449 5447 5447 5445 5441 5439 5437 5434 5432 5429 5426 5426 5426 5425 5424 5423 5422 5421 5420 5419 5419 5419 5419 5419 5420 5420 5419 5420 5423 5426
5536 5533 5529 5524 5523 5519 5513 5509 5504 5500 5501 5503 5505 5509 5509 5506 5506 5501 5494 5495 5499 5497 5494 5492 5490 5486 5483 5480 5478 5478 5477 5477 5480 5484 5480 5472 5471 5474 5472 5471 5470 5467 5465 5463 5461 5459 5456 5454 5453 5452 5451 5449 5447 5444 5439 5437 5435 5433 5432 5430 5427 5424 5423 5420 5417 5413 5411 5410 5409 5408 5407 5405 5404 5404 5403 5402 5401 5401 5401 5401 5402 5404 5403 5403 5405 5407
5526 5523 5520 5513 5510 5510 5505 5497 5494 5491 5489 5492 5498 5501 5499 5496 5495 5490 5482 5482 5488 5488 5484 5482 5480 5476 5472 5470 5468 5466 5465 5465 5468 5474 5470 5461 5460 5463 5462 5460 5459 5456 5454 5452 5449 5447 5444 5442 5441 5440 5438 5437 5435 5431 5427 5425 5423 5420 5418 5416 5413 5410 5409 5406 5402 5399 5398 5397 5394 5392 5390 5388 5386 5386 5385 5384 5383 5382 5381 5382 5383 5385 5385 5385 5387 5390
5516 5512 5510 5502 5498 5500 5496 5488 5485 5482 5480 5484 5488 5491 5490 5487 5484 5479 5471 5471 5478 5479 5474 5471 5469 5465 5461 5459 5457 5454 5454 5455 5458 5463 5461 5454 5452 5452 5451 5450 5447 5444 5442 5440 5437 5435 5432 5430 5429 5428 5426 5424 5422 5419 5415 5412 5410 5407 5405 5402 5399 5396 5394 5390 5387 5385 5384 5383 5380 5377 5375 5372 5370 5368 5367 5366 5366 5364 5363 5363 5364 5365 5367 5367 5369 5372
5504 5501 5498 5493 5490 5490 5486 5480 5477 5475 5475 5477 5479 5481 5480 5476 5473 5469 5463 5462 5467 5467 5462 5459 5458 5455 5452 5449 5446 5445 5446 5447 5449 5452 5451 5447 5444 5442 5440 5439 5436 5433 5431 5429 5426 5423 5420 5419 5417 5416 5415 5412 5409 5406 5402 5398 5397 5395 5392 5389 5386 5383 5379 5374 5372 5371 5369 5368 5365 5363 5360 5357 5354 5353 5351 5349 5348 5348 5347 5346 5346 5347 5348 5349 5351 5353
5492 5489 5487 5484 5483 5481 5478 5472 5468 5467 5469 5472 5473 5471 5469 5466 5463 5461 5457 5456 5457 5454 5451 5449 5447 5445 5444 5440 5438 5438 5440 5440 5440 5441 5441 5438 5435 5432 5430 5427 5425 5423 5421 5418 5415 5412 5409 5408 5407 5405 5403 5401 5397 5393 5389 5385 5383 5382 5378 5375 5372 5368 5363 5360 5358 5356 5353 5352 5350 5348 5345 5342 5339 5337 5336 5334 5332 5331 5331 5331 5330 5330 5330 5331 5332 5335
5481 5479 5477 5477 5475 5473 5470 5465 5459 5458 5463 5468 5466 5462 5459 5457 5456 5453 5451 5449 5448 5445 5442 5439 5438 5437 5435 5433 5432 5432 5433 5433 5432 5431 5430 5428 5425 5423 5420 5417 5414 5413 5411 5408 5405 5401 5398 5397 5396 5394 5393 5390 5385 5381 5376 5371 5369 5367 5364 5361 5357 5352 5348 5345 5343 5340 5338 5336 5334 5331 5329 5326 5323 5321 5320 5318 5316 5313 5314 5316 5315 5314 5314 5313 5314 5316
5472 5470 5469 5470 5467 5463 5459 5456 5452 5453 5458 5460 5456 5453 5451 5449 5447 5445 5443 5441 5439 5437 5434 5431 5430 5429 5426 5425 5426 5425 5424 5424 5423 5421 5420 5418 5416 5413 5411 5407 5404 5403 5401 5399 5395 5391 5387 5386 5385 5383 5381 5378 5374 5368 5363 5358 5355 5353 5350 5347 5342 5338 5334 5331 5327 5324 5321 5319 5316 5314 5311 5308 5306 5304 5302 5301 5298 5295 5295 5298 5298 5296 5296 5296 5296 5297
5465 5464 5462 5461 5457 5453 5450 5448 5447 5450 5452 5450 5446 5445 5443 5440 5438 5437 5435 5433 5431 5429 5427 5424 5423 5422 5419 5417 5417 5416 5416 5416 5414 5412 5410 5408 5407 5405 5401 5398 5396 5393 5391 5388 5385 5381 5378 5375 5374 5372 5370 5367 5362 5356 5350 5345 5340 5338 5336 5333 5328 5323 5320 5316 5312 5308 5305 5302 5299 5296 5293 5289 5287 5286 5284 5283 5281 5277 5277 5279 5279 5278 5278 5279 5279 5279
5459 5460 5455 5449 5446 5445 5444 5444 5443 5446 5446 5441 5436 5436 5434 5432 5431 5429 5425 5425 5424 5422 5420 5417 5416 5416 5413 5410 5408 5408 5407 5406 5404 5403 5401 5399 5398 5396 5392 5390 5387 5384 5381 5378 5375 5372 5369 5365 5363 5360 5358 5357 5352 5344 5339 5333 5327 5324 5322 5318 5313 5308 5304 5300 5296 5292 5289 5286 5281 5278 5275 5272 5270 5268 5266 5265 5263 5261 5260 5261 5261 5260 5261 5262 5262 5263
5454 5453 5445 5438 5438 5437 5438 5440 5440 5440 5439 5434 5428 5426 5426 5426 5425 5421 5417 5417 5417 5415 5412 5410 5408 5408 5406 5402 5400 5400 5399 5398 5395 5394 5393 5391 5390 5387 5384 5381 5379 5375 5372 5369 5366 5363 5360 5356 5353 5349 5347 5346 5341 5334 5328 5322 5316 5311 5307 5303 5298 5292 5287 5283 5279 5276 5273 5270 5266 5262 5259 5255 5254 5252 5249 5248 5246 5243 5243 5243 5242 5242 5243 5244 5245 5246
5449 5445 5434 5430 5432 5429 5430 5436 5436 5431 5429 5427 5422 5420 5420 5418 5417 5415 5412 5411 5410 5407 5405 5403 5401 5400 5398 5395 5393 5392 5391 5390 5387 5386 5385 5384 5381 5379 5376 5373 5371 5368 5364 5361 5358 5355 5351 5347 5343 5340 5336 5334 5330 5324 5317 5311 5305 5299 5293 5287 5282 5276 5272 5268 5264 5261 5259 5255 5251 5247 5243 5239 5237 5235 5233 5231 5229 5227 5227 5227 5225 5224 5225 5226 5227 5229
5441 5435 5427 5426 5426 5422 5422 5430 5429 5422 5421 5421 5417 5415 5414 5411 5409 5408 5406 5404 5403 5401 5398 5396 5393 5392 5391 5388 5386 5384 5384 5382 5380 5378 5378 5376 5373 5370 5367 5365 5363 5360 5357 5354 5350 5346 5342 5338 5334 5330 5326 5323 5318 5313 5307 5301 5294 5287 5279 5273 5268 5263 5259 5256 5251 5247 5244 5241 5237 5233 5229 5225 5222 5220 5218 5216 5215 5213 5212 5212 5210 5209 5210 5210 5209 5210
5432 5426 5422 5421 5419 5416 5417 5422 5420 5414 5414 5416 5413 5409 5408 5405 5403 5401 5399 5397 5395 5394 5391 5388 5386 5384 5383 5381 5379 5377 5376 5375 5372 5371 5370 5368 5365 5363 5360 5358 5356 5352 5349 5346 5342 5338 5333 5329 5325 5321 5316 5312 5306 5301 5296 5290 5283 5274 5266 5261 5256 5252 5248 5245 5240 5236 5232 5228 5224 5221 5216 5212 5209 5207 5204 5203 5202 5200 5199 5198 5196 5195 5196 5197 5195 5193
5424 5419 5416 5412 5410 5410 5412 5414 5410 5404 5406 5410 5408 5403 5400 5398 5396 5394 5392 5390 5387 5386 5384 5381 5380 5378 5376 5374 5372 5371 5369 5368 5365 5363 5362 5360 5358 5355 5353 5351 5348 5345 5342 5338 5334 5330 5325 5320 5316 5311 5307 5301 5295 5290 5284 5278 5271 5263 5256 5250 5246 5242 5238 5235 5231 5227 5222 5216 5212 5209 5206 5202 5199 5196 5193 5191 5189 5188 5187 5186 5184 5183 5183 5184 5183 5181
5418 5413 5408 5404 5403 5404 5406 5406 5402 5396 5397 5402 5402 5398 5394 5392 5389 5386 5385 5383 5380 5379 5377 5374 5372 5371 5369 5367 5366 5364 5362 5360 5358 5356 5355 5353 5351 5349 5346 5343 5341 5338 5334 5329 5325 5322 5318 5313 5308 5302 5297 5291 5285 5279 5273 5267 5260 5253 5247 5242 5238 5233 5229 5225 5220 5217 5212 5207 5201 5198 5195 5191 5188 5185 5183 5181 5178 5177 5176 5176 5175 5173 5172 5172 5172 5170